DT_LEITURA;HR_LEITURA;MED-PressaoAtm[hPa];VAL-TempExt[oC];VAL-UmidExt[%UR];VAL-TempInt[oC];VAL-UmidInt[%UR];Dir-Vento[grau];Vel-Vento[m/s];Precipitação[mm/h]
06/08/2026;00:00:00;1012,7;-34,1;0;28,6;75;132;0,8;0,0
06/08/2026;00:05:00;1012,7;-34,2;0;28,6;76;129;1,0;0,0
06/08/2026;00:10:00;1012,6;-34,2;0;28,6;76;148;0,7;0,0
06/08/2026;00:15:00;1012,6;-34,3;0;28,6;76;133;0,9;0,0
06/08/2026;00:20:00;1012,5;-34,4;0;28,6;76;148;0,7;0,0
06/08/2026;00:25:00;1012,5;-34,4;0;28,6;77;114;0,9;0,0
06/08/2026;00:30:00;1012,4;-34,5;0;28,5;77;134;1,1;0,0
06/08/2026;00:35:00;1012,4;-34,6;0;28,5;77;121;1,1;0,0
06/08/2026;00:40:00;1012,3;-34,7;0;28,5;77;119;1,2;0,0
06/08/2026;00:45:00;1012,3;-34,7;0;28,4;78;130;0,9;0,0
06/08/2026;00:50:00;1012,2;-34,8;0;28,4;78;125;0,6;0,0
06/08/2026;00:55:00;1012,1;-34,9;0;28,4;78;122;0,9;0,0
06/08/2026;01:00:00;1012,0;-34,9;0;28,4;78;120;0,6;0,0
06/08/2026;01:05:00;1012,0;-35,0;0;28,3;78;130;0,8;0,0
06/08/2026;01:10:00;1012,0;-35,0;0;28,3;78;119;1,2;0,0
06/08/2026;01:15:00;1012,0;-35,0;0;28,3;79;125;0,7;0,0
06/08/2026;01:20:00;1012,0;-35,1;0;28,2;79;122;0,7;0,0
06/08/2026;01:25:00;1011,9;-35,1;0;28,2;79;122;0,8;0,0
06/08/2026;01:30:00;1011,8;-35,2;0;28,2;79;140;0,6;0,0
06/08/2026;01:35:00;1011,7;-35,2;0;28,1;79;129;0,6;0,0
06/08/2026;01:40:00;1011,7;-35,2;0;28,1;79;138;0,7;0,0
06/08/2026;01:45:00;1011,7;-35,3;0;28,1;79;153;0,5;0,0
06/08/2026;01:50:00;1011,7;-35,3;0;28,1;79;132;0,6;0,0
06/08/2026;01:55:00;1011,6;-35,3;0;28,0;79;154;0,5;0,0
06/08/2026;02:00:00;1011,5;-35,4;0;28,0;79;169;0,4;0,0
06/08/2026;02:05:00;1011,4;-35,4;0;27,9;79;315;0,2;0,0
06/08/2026;02:10:00;1011,3;-35,4;0;27,9;79;23;0,2;0,0
06/08/2026;02:15:00;1011,3;-35,4;0;27,9;80;339;0,3;0,0
06/08/2026;02:20:00;1011,3;-35,5;0;27,9;80;310;0,3;0,0
06/08/2026;02:25:00;1011,3;-35,5;0;27,9;80;332;0,4;0,0
06/08/2026;02:30:00;1011,2;-35,5;0;27,9;79;359;0,4;0,0
06/08/2026;02:35:00;1011,2;-35,5;0;27,8;79;322;0,4;0,0
06/08/2026;02:40:00;1011,2;-35,5;0;27,8;79;332;0,4;0,0
06/08/2026;02:45:00;1011,1;-35,5;0;27,8;79;359;0,4;0,0
06/08/2026;02:50:00;1011,0;-35,5;0;27,7;79;360;0,5;0,0
06/08/2026;02:55:00;1011,0;-35,6;0;27,6;80;342;0,5;0,0
06/08/2026;03:00:00;1011,0;-35,6;0;27,6;80;20;0,5;0,0
06/08/2026;03:05:00;1011,0;-35,6;0;27,5;80;343;0,4;0,0
06/08/2026;03:10:00;1011,0;-35,6;0;27,5;80;340;0,4;0,0
06/08/2026;03:15:00;1011,0;-35,6;0;27,4;80;346;0,5;0,0
06/08/2026;03:20:00;1010,9;-35,7;0;27,4;80;327;0,3;0,0
06/08/2026;03:25:00;1010,9;-35,7;0;27,4;80;308;0,3;0,0
06/08/2026;03:30:00;1010,9;-35,7;0;27,4;80;314;0,4;0,0
06/08/2026;03:35:00;1010,9;-35,7;0;27,4;81;44;0,4;0,0
06/08/2026;03:40:00;1010,9;-35,7;0;27,4;80;31;0,4;0,0
06/08/2026;03:45:00;1010,9;-35,7;0;27,4;80;356;0,5;0,0
06/08/2026;03:50:00;1010,9;-35,7;0;27,4;80;359;0,4;0,0
06/08/2026;03:55:00;1010,9;-35,7;0;27,3;80;294;0,4;0,0
06/08/2026;04:00:00;1011,0;-35,8;0;27,3;81;331;0,5;0,0
06/08/2026;04:05:00;1011,1;-35,8;0;27,3;81;37;0,4;0,0
06/08/2026;04:10:00;1011,1;-35,8;0;27,3;81;342;0,5;0,0
06/08/2026;04:15:00;1011,2;-35,8;0;27,3;81;9;0,5;0,0
06/08/2026;04:20:00;1011,2;-35,8;0;27,2;81;17;0,4;0,0
06/08/2026;04:25:00;1011,2;-35,8;0;27,2;81;131;0,2;0,0
06/08/2026;04:30:00;1011,2;-35,8;0;27,2;81;20;0,3;0,0
06/08/2026;04:35:00;1011,3;-35,9;0;27,1;81;340;0,5;0,0
06/08/2026;04:40:00;1011,3;-35,9;0;27,1;81;341;0,6;0,0
06/08/2026;04:45:00;1011,3;-35,9;0;27,0;81;349;0,6;0,0
06/08/2026;04:50:00;1011,3;-35,9;0;27,0;82;345;0,5;0,0
06/08/2026;04:55:00;1011,3;-35,9;0;26,9;82;359;0,5;0,0
06/08/2026;05:00:00;1011,3;-35,9;0;26,9;82;349;0,5;0,0
06/08/2026;05:05:00;1011,4;-35,9;0;26,9;82;339;0,6;0,0
06/08/2026;05:10:00;1011,4;-35,9;0;26,8;82;325;0,4;0,0
06/08/2026;05:15:00;1011,4;-35,9;0;26,8;82;3;0,7;0,0
06/08/2026;05:20:00;1011,5;-36,0;0;26,7;83;360;0,6;0,0
06/08/2026;05:25:00;1011,5;-36,0;0;26,7;83;16;0,4;0,0
06/08/2026;05:30:00;1011,6;-36,0;0;26,7;83;267;0,4;0,0
06/08/2026;05:35:00;1011,6;-36,0;0;26,7;83;182;0,4;0,0
06/08/2026;05:40:00;1011,6;-36,0;0;26,6;83;40;0,4;0,0
06/08/2026;05:45:00;1011,7;-36,0;0;26,6;83;17;0,5;0,0
06/08/2026;05:50:00;1011,7;-36,0;0;26,6;83;55;0,4;0,0
06/08/2026;05:55:00;1011,7;-36,0;0;26,5;83;342;0,3;0,0
06/08/2026;06:00:00;1011,8;-36,0;0;26,5;83;340;0,3;0,0
06/08/2026;06:05:00;1011,9;-36,0;0;26,5;83;57;0,3;0,0
06/08/2026;06:10:00;1011,9;-36,0;0;26,4;83;344;0,6;0,0
06/08/2026;06:15:00;1011,9;-36,0;0;26,4;83;341;0,5;0,0
06/08/2026;06:20:00;1012,0;-36,0;0;26,4;83;27;0,3;0,0
06/08/2026;06:25:00;1012,1;-36,0;0;26,3;84;292;0,4;0,0
06/08/2026;06:30:00;1012,1;-36,1;0;26,3;84;11;0,4;0,0
06/08/2026;06:35:00;1012,2;-36,1;0;26,3;84;52;0,3;0,0
06/08/2026;06:40:00;1012,2;-36,1;0;26,2;84;304;0,3;0,0
06/08/2026;06:45:00;1012,2;-36,0;0;26,2;84;321;0,5;0,0
06/08/2026;06:50:00;1012,2;-36,0;0;26,2;84;340;0,4;0,0
06/08/2026;06:55:00;1012,3;-36,0;0;26,2;84;32;0,5;0,0
06/08/2026;07:00:00;1012,4;-36,0;0;26,2;84;35;0,4;0,0
06/08/2026;07:05:00;1012,4;-36,0;0;26,2;84;29;0,5;0,0
06/08/2026;07:10:00;1012,4;-36,0;0;26,2;84;15;0,4;0,0
06/08/2026;07:15:00;1012,4;-36,0;0;26,3;84;359;0,5;0,0
06/08/2026;07:20:00;1012,4;-36,0;1;26,3;84;27;0,3;0,0
06/08/2026;07:25:00;1012,4;-36,0;1;26,3;84;25;0,5;0,0
06/08/2026;07:30:00;1012,5;-36,0;1;26,4;84;16;0,3;0,0
06/08/2026;07:35:00;1012,5;-36,0;1;26,5;84;10;0,4;0,0
06/08/2026;07:40:00;1012,6;-36,0;1;26,6;84;20;0,4;0,0
06/08/2026;07:45:00;1012,7;-36,0;0;26,8;83;359;0,7;0,0
06/08/2026;07:50:00;1012,8;-36,0;0;26,9;83;359;0,6;0,0
06/08/2026;07:55:00;1012,8;-36,0;0;27,0;82;35;0,5;0,0
06/08/2026;08:00:00;1012,9;-36,0;1;27,0;82;21;0,5;0,0
06/08/2026;08:05:00;1013,0;-36,0;0;27,2;82;230;0,5;0,0
06/08/2026;08:10:00;1013,1;-36,0;1;27,3;82;321;0,5;0,0
06/08/2026;08:15:00;1013,1;-36,0;0;27,5;82;329;0,4;0,0
06/08/2026;08:20:00;1013,2;-36,0;0;27,6;82;329;0,5;0,0
06/08/2026;08:25:00;1013,2;-36,0;0;27,8;81;22;0,4;0,0
06/08/2026;08:30:00;1013,2;-36,0;0;28,0;80;252;0,6;0,0
06/08/2026;08:35:00;1013,3;-36,0;0;28,1;80;274;0,5;0,0
06/08/2026;08:40:00;1013,3;-36,0;0;28,2;80;310;0,5;0,0
06/08/2026;08:45:00;1013,4;-35,9;0;28,4;79;296;0,6;0,0
06/08/2026;08:50:00;1013,4;-36,0;0;28,5;78;12;0,4;0,0
06/08/2026;08:55:00;1013,4;-35,9;0;28,7;78;148;0,5;0,0
06/08/2026;09:00:00;1013,4;-35,9;0;28,9;78;271;0,6;0,0
06/08/2026;09:05:00;1013,4;-35,8;0;29,1;77;15;0,4;0,0
06/08/2026;09:10:00;1013,5;-35,8;0;29,3;76;130;1,2;0,0
06/08/2026;09:15:00;1013,4;-35,7;0;29,5;75;114;0,6;0,0
06/08/2026;09:20:00;1013,4;-35,5;0;29,7;75;236;0,4;0,0
06/08/2026;09:25:00;1013,5;-35,2;0;30,0;74;258;0,6;0,0
06/08/2026;09:30:00;1013,5;-34,5;0;30,4;72;149;1,2;0,0
06/08/2026;09:35:00;1013,5;-33,8;0;30,6;71;147;1,2;0,0
06/08/2026;09:40:00;1013,5;-32,7;0;30,9;70;129;0,9;0,0
06/08/2026;09:45:00;1013,5;-29,9;0;31,2;68;143;1,4;0,0
06/08/2026;09:50:00;1013,4;-27,0;0;31,5;68;119;1,1;0,0
06/08/2026;09:55:00;1013,5;-23,4;1;31,7;66;84;0,6;0,0
06/08/2026;10:00:00;1013,5;-21,4;1;31,7;66;152;1,1;0,0
06/08/2026;10:05:00;1013,5;-19,9;2;32,0;66;146;0,8;0,0
06/08/2026;10:10:00;1013,5;-18,4;3;32,3;63;161;1,5;0,0
06/08/2026;10:15:00;1013,5;-17,5;3;32,4;63;149;1,3;0,0
06/08/2026;10:20:00;1013,5;-17,1;3;32,3;63;139;1,6;0,0
06/08/2026;10:25:00;1013,4;-17,0;3;32,2;63;133;1,2;0,0
06/08/2026;10:30:00;1013,5;-16,6;3;32,4;63;144;1,3;0,0
06/08/2026;10:35:00;1013,5;-15,9;3;32,9;61;140;1,7;0,0
06/08/2026;10:40:00;1013,4;-15,4;3;33,1;60;140;1,6;0,0
06/08/2026;10:45:00;1013,4;-15,1;3;33,3;59;129;1,8;0,0
06/08/2026;10:50:00;1013,4;-14,8;3;33,5;59;128;2,1;0,0
06/08/2026;10:55:00;1013,4;-14,5;3;33,7;57;136;2,1;0,0
06/08/2026;11:00:00;1013,3;-13,1;3;34,0;57;141;1,5;0,0
06/08/2026;11:05:00;1013,3;-13,8;3;34,2;56;132;1,8;0,0
06/08/2026;11:10:00;1013,3;-13,6;3;34,2;56;134;1,9;0,0
06/08/2026;11:15:00;1013,2;-13,5;3;34,5;55;136;1,4;0,0
06/08/2026;11:20:00;1013,2;-13,4;3;34,7;54;142;1,7;0,0
06/08/2026;11:25:00;1013,2;-13,2;3;34,9;54;146;1,4;0,0
06/08/2026;11:30:00;1013,1;-13,1;4;35,1;54;136;1,7;0,0
06/08/2026;11:35:00;1013,1;-13,0;4;35,2;53;140;1,8;0,0
06/08/2026;11:40:00;1013,0;-13,0;4;34,9;54;134;2,0;0,0
06/08/2026;11:45:00;1013,0;-12,0;4;34,6;55;135;1,9;0,0
06/08/2026;11:50:00;1012,9;-12,8;4;34,4;55;134;1,6;0,0
06/08/2026;11:55:00;1012,8;-12,9;4;34,3;55;130;1,5;0,0
06/08/2026;12:00:00;1012,8;-12,9;4;34,5;54;134;1,6;0,0
06/08/2026;12:05:00;1012,8;-12,8;4;34,6;54;134;1,8;0,0
06/08/2026;12:10:00;1012,7;-12,8;4;34,8;54;140;1,2;0,0
06/08/2026;12:15:00;1012,7;-12,7;4;35,1;53;123;1,6;0,0
06/08/2026;12:20:00;1012,6;-12,7;4;35,3;52;125;1,5;0,0
06/08/2026;12:25:00;1012,5;-12,7;4;35,5;52;144;1,6;0,0
06/08/2026;12:30:00;1012,4;-11,8;4;35,8;51;130;1,5;0,0
06/08/2026;12:35:00;1012,4;-12,6;4;36,0;50;137;1,5;0,0
06/08/2026;12:40:00;1012,2;-12,6;4;36,3;50;135;1,2;0,0
06/08/2026;12:45:00;1012,2;-12,6;4;36,5;49;126;1,8;0,0
06/08/2026;12:50:00;1012,1;-12,5;4;36,7;48;134;1,4;0,0
06/08/2026;12:55:00;1012,0;-12,5;4;36,8;48;135;1,4;0,0
06/08/2026;13:00:00;1011,9;-12,5;4;37,1;48;133;1,4;0,0
06/08/2026;13:05:00;1011,9;-12,5;4;37,3;47;127;1,6;0,0
06/08/2026;13:10:00;1011,8;-12,5;4;37,4;46;131;1,5;0,0
06/08/2026;13:15:00;1011,7;-12,5;4;37,6;46;133;1,3;0,0
06/08/2026;13:20:00;1011,6;-12,5;4;37,7;46;129;1,8;0,0
06/08/2026;13:25:00;1011,5;-12,5;4;37,8;45;121;1,5;0,0
06/08/2026;13:30:00;1011,3;-11,6;4;38,0;45;134;1,4;0,0
06/08/2026;13:35:00;1011,3;-12,4;4;38,3;45;144;1,2;0,0
06/08/2026;13:40:00;1011,2;-12,4;4;38,5;44;144;1,1;0,0
06/08/2026;13:45:00;1011,1;-12,4;4;38,7;44;143;1,2;0,0
06/08/2026;13:50:00;1011,1;-12,4;4;38,9;42;125;1,2;0,0
06/08/2026;13:55:00;1010,9;-12,4;4;39,0;42;153;1,3;0,0
06/08/2026;14:00:00;1010,9;-11,5;4;39,2;42;161;1,2;0,0
06/08/2026;14:05:00;1010,8;-12,3;4;39,2;42;141;1,1;0,0
06/08/2026;14:10:00;1010,8;-12,3;4;39,3;41;137;1,5;0,0
06/08/2026;14:15:00;1010,8;-12,3;4;39,1;41;144;1,3;0,0
06/08/2026;14:20:00;1010,8;-12,3;4;39,1;42;126;1,3;0,0
06/08/2026;14:25:00;1010,7;-12,3;4;39,2;41;117;1,3;0,0
06/08/2026;14:30:00;1010,7;-12,3;4;39,2;42;132;1,0;0,0
06/08/2026;14:35:00;1010,6;-12,3;4;39,4;41;131;1,5;0,0
06/08/2026;14:40:00;1010,5;-12,3;4;39,3;41;129;1,1;0,0
06/08/2026;14:45:00;1010,4;-12,3;4;39,2;41;127;1,2;0,0
06/08/2026;14:50:00;1010,3;-12,3;4;39,2;40;143;1,3;0,0
06/08/2026;14:55:00;1010,3;-12,3;4;39,2;41;129;1,2;0,0
06/08/2026;15:00:00;1010,2;-11,3;4;39,2;42;135;1,1;0,0
06/08/2026;15:05:00;1010,1;-12,2;4;39,1;41;147;1,0;0,0
06/08/2026;15:10:00;1010,1;-12,2;4;39,1;41;150;1,2;0,0
06/08/2026;15:15:00;1010,1;-12,2;4;39,3;41;135;1,3;0,0
06/08/2026;15:20:00;1010,1;-12,2;4;39,4;41;150;1,1;0,0
06/08/2026;15:25:00;1010,1;-12,2;4;39,6;40;143;1,0;0,0
06/08/2026;15:30:00;1010,1;-12,2;4;39,6;40;125;1,4;0,0
06/08/2026;15:35:00;1010,1;-12,2;4;39,6;40;141;0,9;0,0
06/08/2026;15:40:00;1010,0;-12,2;4;39,7;40;128;1,0;0,0
06/08/2026;15:45:00;1010,0;-12,2;4;39,8;40;132;1,4;0,0
06/08/2026;15:50:00;1009,9;-12,2;4;39,8;38;124;1,4;0,0
06/08/2026;15:55:00;1009,9;-12,1;4;39,7;39;126;1,3;0,0
06/08/2026;16:00:00;1009,8;-11,2;4;39,5;39;121;1,4;0,0
06/08/2026;16:05:00;1009,8;-12,1;4;39,5;39;146;1,1;0,0
06/08/2026;16:10:00;1009,7;-12,1;4;39,5;38;153;1,4;0,0
06/08/2026;16:15:00;1009,7;-12,0;4;39,3;39;144;1,4;0,0
06/08/2026;16:20:00;1009,8;-12,0;4;39,1;39;138;1,7;0,0
06/08/2026;16:25:00;1009,8;-12,0;4;38,8;39;126;1,7;0,0
06/08/2026;16:30:00;1009,7;-12,1;4;38,1;42;133;1,4;0,0
06/08/2026;16:35:00;1009,7;-12,1;4;37,5;43;132;1,4;0,0
06/08/2026;16:40:00;1009,7;-12,1;4;36,9;44;133;1,5;0,0
06/08/2026;16:45:00;1009,7;-12,1;4;36,5;46;125;1,1;0,0
06/08/2026;16:50:00;1009,8;-12,1;5;36,2;46;132;1,7;0,0
06/08/2026;16:55:00;1009,7;-12,1;5;35,8;45;120;1,6;0,0
06/08/2026;17:00:00;1009,7;-12,0;5;35,5;46;114;1,5;0,0
06/08/2026;17:05:00;1009,8;-12,0;5;35,1;48;120;1,7;0,0
06/08/2026;17:10:00;1009,8;-12,0;5;34,8;49;118;1,6;0,0
06/08/2026;17:15:00;1009,8;-12,0;5;34,5;51;117;1,5;0,0
06/08/2026;17:20:00;1009,8;-12,1;5;34,2;53;127;1,6;0,0
06/08/2026;17:25:00;1009,8;-12,1;4;33,8;55;124;1,1;0,0
06/08/2026;17:30:00;1009,9;-11,3;5;33,5;56;118;1,1;0,0
06/08/2026;17:35:00;1009,9;-12,3;4;33,3;57;113;1,2;0,0
06/08/2026;17:40:00;1009,9;-12,4;4;33,1;55;119;1,6;0,0
06/08/2026;17:45:00;1010,0;-12,6;4;32,8;54;116;1,5;0,0
06/08/2026;17:50:00;1010,0;-12,8;4;32,6;54;118;1,1;0,0
06/08/2026;17:55:00;1010,0;-12,9;4;32,4;54;119;1,1;0,0
06/08/2026;18:00:00;1010,1;-12,3;4;32,3;55;114;1,0;0,0
06/08/2026;18:05:00;1010,0;-13,2;4;32,2;56;117;0,9;0,0
06/08/2026;18:10:00;1010,1;-13,4;4;32,1;56;122;0,9;0,0
06/08/2026;18:15:00;1010,2;-13,5;4;32,0;57;117;0,9;0,0
06/08/2026;18:20:00;1010,2;-13,7;4;32,0;58;122;0,8;0,0
06/08/2026;18:25:00;1010,2;-13,8;4;31,9;59;120;0,8;0,0
06/08/2026;18:30:00;1010,2;-13,9;4;31,8;59;118;1,1;0,0
06/08/2026;18:35:00;1010,3;-14,2;4;31,7;59;113;1,1;0,0
06/08/2026;18:40:00;1010,3;-14,5;4;31,6;59;115;1,1;0,0
06/08/2026;18:45:00;1010,4;-14,1;4;31,4;59;121;1,1;0,0
06/08/2026;18:50:00;1010,3;-15,2;4;31,3;60;124;1,1;0,0
06/08/2026;18:55:00;1010,3;-15,6;4;31,2;60;117;1,0;0,0
06/08/2026;19:00:00;1010,4;-16,1;4;31,1;60;140;0,9;0,0
06/08/2026;19:05:00;1010,5;-16,7;4;31,0;61;159;0,6;0,0
06/08/2026;19:10:00;1010,5;-17,2;4;30,9;61;142;0,7;0,0
06/08/2026;19:15:00;1010,6;-17,7;4;30,8;62;128;0,8;0,0
06/08/2026;19:20:00;1010,6;-18,2;4;30,8;63;129;0,8;0,0
06/08/2026;19:25:00;1010,6;-18,7;4;30,7;63;127;1,0;0,0
06/08/2026;19:30:00;1010,6;-18,7;4;30,7;64;139;0,9;0,0
06/08/2026;19:35:00;1010,7;-19,6;4;30,6;65;140;0,9;0,0
06/08/2026;19:40:00;1010,8;-20,3;4;30,5;66;142;0,8;0,0
06/08/2026;19:45:00;1010,9;-20,9;4;30,4;66;146;0,8;0,0
06/08/2026;19:50:00;1011,0;-21,4;4;30,4;67;137;0,8;0,0
06/08/2026;19:55:00;1011,0;-21,8;4;30,3;67;145;0,6;0,0
06/08/2026;20:00:00;1011,1;-22,2;4;30,3;67;151;0,7;0,0
06/08/2026;20:05:00;1011,2;-22,5;4;30,3;67;153;0,8;0,0
06/08/2026;20:10:00;1011,3;-22,9;4;30,2;67;153;0,8;0,0
06/08/2026;20:15:00;1011,4;-22,9;4;30,2;67;147;0,9;0,0
06/08/2026;20:20:00;1011,5;-23,2;4;30,2;67;161;0,7;0,0
06/08/2026;20:25:00;1011,5;-23,4;4;30,2;67;152;0,7;0,0
06/08/2026;20:30:00;1011,6;-23,6;4;30,2;67;155;0,8;0,0
06/08/2026;20:35:00;1011,5;-23,8;4;30,2;67;146;0,9;0,0
06/08/2026;20:40:00;1011,7;-24,0;4;30,2;68;134;1,1;0,0
06/08/2026;20:45:00;1011,9;-24,6;4;30,0;71;145;1,0;0,0
06/08/2026;20:50:00;1011,9;-25,6;0;29,5;76;123;1,9;0,0
06/08/2026;20:55:00;1011,9;-26,6;0;29,2;78;145;0,9;0,0
06/08/2026;21:00:00;1012,0;-27,8;0;28,9;79;115;1,5;0,0
06/08/2026;21:05:00;1012,0;-29,0;0;28,8;80;113;1,0;0,0
06/08/2026;21:10:00;1012,1;-30,0;0;28,7;81;150;0,6;0,0
06/08/2026;21:15:00;1012,1;-30,8;0;28,7;82;198;0,3;0,0
06/08/2026;21:20:00;1012,2;-31,3;1;28,7;82;125;0,8;0,0
06/08/2026;21:25:00;1012,3;-31,7;0;28,7;82;136;0,3;0,0
06/08/2026;21:30:00;1012,3;-32,1;0;28,7;83;120;0,6;0,0
06/08/2026;21:35:00;1012,4;-32,3;0;28,7;82;125;0,7;0,0
06/08/2026;21:40:00;1012,5;-32,6;0;28,7;83;130;0,6;0,0
06/08/2026;21:45:00;1012,5;-32,8;0;28,6;83;83;0,4;0,0
06/08/2026;21:50:00;1012,6;-33,0;0;28,6;82;74;0,2;0,0
06/08/2026;21:55:00;1012,7;-33,1;0;28,6;83;105;0,2;0,0
06/08/2026;22:00:00;1012,7;-33,2;0;28,6;82;98;0,2;0,0
06/08/2026;22:05:00;1012,8;-33,4;0;28,7;82;144;0,3;0,0
06/08/2026;22:10:00;1012,8;-33,5;0;28,7;82;117;0,3;0,0
06/08/2026;22:15:00;1012,8;-33,6;0;28,7;80;307;0,3;0,0
06/08/2026;22:20:00;1012,8;-33,6;0;28,6;79;136;0,3;0,0
06/08/2026;22:25:00;1012,8;-33,7;0;28,6;79;40;0,4;0,0
06/08/2026;22:30:00;1012,8;-33,8;0;28,6;78;44;0,5;0,0
06/08/2026;22:35:00;1012,8;-33,8;0;28,5;78;27;0,4;0,0
06/08/2026;22:40:00;1012,9;-33,9;0;28,5;78;352;0,4;0,0
06/08/2026;22:45:00;1012,9;-34,0;0;28,5;78;79;0,4;0,0
06/08/2026;22:50:00;1012,8;-34,0;0;28,5;77;24;0,3;0,0
06/08/2026;22:55:00;1012,8;-34,1;0;28,4;77;54;0,4;0,0
06/08/2026;23:00:00;1012,8;-34,1;0;28,4;77;93;0,4;0,0
06/08/2026;23:05:00;1012,8;-34,2;0;28,4;77;356;0,4;0,0
06/08/2026;23:10:00;1012,8;-34,2;0;28,4;77;51;0,4;0,0
06/08/2026;23:15:00;1012,8;-34,3;0;28,3;77;310;0,4;0,0
06/08/2026;23:20:00;1012,7;-34,3;0;28,3;77;332;0,5;0,0
06/08/2026;23:25:00;1012,7;-34,4;0;28,2;77;338;0,5;0,0
06/08/2026;23:30:00;1012,7;-34,4;0;28,2;77;338;0,4;0,0
06/08/2026;23:35:00;1012,6;-34,5;0;28,2;77;351;0,4;0,0
06/08/2026;23:40:00;1012,5;-34,5;0;28,1;77;106;0,3;0,0
06/08/2026;23:45:00;1012,6;-34,6;0;28,1;77;6;0,5;0,0
06/08/2026;23:50:00;1012,5;-34,6;0;28,1;78;52;0,4;0,0
06/08/2026;23:55:00;1012,5;-34,7;0;28,0;78;69;0,4;0,0
